Location: Gazon
(48.1318°N, 1.2708°W)
Time: 23:19:39
(UTC+00:00)

ARIANE 5 R/B - Pass Details

Date: 18 September 2020
Orbit: 620 x 657 km, 98.2° (Epoch: 09 October)

Event Time Altitude Azimuth Distance (km) Brightness Sun altitude
Exits shadow 19:37:43 17° 67° (ENE) 1,610 4.3 -15.1°
Maximum altitude 19:38:09 17° 60° (ENE) 1,599 4.3 -15.1°
Drops below altitude 10° 19:40:55 10° 20° (NNE) 2,003 5.2 -15.6°
Sets 19:43:45 0° 0° (N) 2,912 6.3 -16.0°
